GLOBALSTAR M058 [-]

Last updated on Fri Dec 29 2023 00:02:56 GMT+0000 (Coordinated Universal Time)

1 25907U 99049A 23362.50176913 -.00000087 00000+0 -35684-4 0 9998 2 25907 51.9940 102.2295 0001745 325.7189 34.3533 11.93171738 88688
UTC large
Height (km)
Speed (km/s)
/
Latitude / Longitude
Inclination (degrees)
Orbital Period (minutes)
Azimuth
Elevation
Range (km)
Doppler Factor

Next 0 passes for location: London (51.5072 / 0.1276)

Sorry there are no passes over London.